Location: A�t �Alizem
(31.2076°N, 8.7872°W)
Time: 15:15:10
(UTC+00:00)

USA 215 - Pass Details

Date: 27 November 2020
Orbit: 1098 x 1110 km, 123.0° (Epoch: 22 January)

Event Time Altitude Azimuth Distance (km) Brightness Sun altitude
Exits shadow 18:09:33 - 37° (NE) 3,592 5.4 -8.1°
Reaches altitude 10° 18:11:10 10° 36° (NE) 2,973 5.0 -8.5°
Maximum altitude 18:17:40 67° 315° (NW) 1,190 3.6 -9.8°
Drops below altitude 10° 18:24:09 10° 234° (SW) 2,964 6.8 -11.1°
Sets 18:26:39 0° 232° (SW) 3,920 7.6 -11.6°
